Location: Arpaise
(41.0333°N, 14.7333°E)
Time: 16:13:32
(UTC+00:00)

Cosmos 1328 Rocket - Pass Details

Date: 05 July 2020
Orbit: 601 x 627 km, 82.5° (Epoch: 10 August)

Event Time Altitude Azimuth Distance (km) Brightness Sun altitude
Rises 22:44:35 0° 351° (N) 2,862 8.3 -26.1°
Reaches altitude 10° 22:46:48 10° 351° (N) 1,953 7.1 -26.1°
Enters shadow 22:50:27 62° 340° (NNW) 678 3.9 -26.2°
